This is the latest recevied weather packets stored in our database for station/object EA3RCF. If no packets are shown the sender has not sent any weather packets the latest 10 day(s).
| Time | Temp. | Humidity | Pressure | Rain* | Wind** | Luminosity | Snow |
|---|---|---|---|---|---|---|---|
| 1777996107 | - | - | 1010.1 hPa | 0 mm | - | - | - |
| 1777995856 | - | - | 1010.2 hPa | 0 mm | - | - | - |
| 1777995199 | - | - | 1010 hPa | 0 mm | - | - | - |
| 1777994898 | - | - | 1010 hPa | 0 mm | - | - | - |
| 1777994607 | - | - | 1009.9 hPa | 0 mm | - | - | - |
| 1777994307 | 17.22° C | 76% | 1010 hPa | 0 mm | - | - | - |
| 1777993711 | 17.22° C | 76% | 1009.8 hPa | 0 mm | - | - | - |
| 1777993412 | 17.22° C | 75% | 1009.8 hPa | 0 mm | - | - | - |
| 1777993113 | 17.22° C | 75% | 1009.8 hPa | 0 mm | - | - | - |
| 1777992795 | 17.22° C | 74% | 1009.9 hPa | 0 mm | - | - | - |
| 1777992522 | 17.22° C | 72% | 1009.9 hPa | 0 mm | - | - | - |
| 1777992203 | 17.22° C | 71% | 1010 hPa | 0 mm | - | - | - |
| 1777991904 | 17.22° C | 71% | 1010.1 hPa | 0 mm | - | - | - |
| 1777991613 | 16.67° C | 73% | 1010.1 hPa | 0 mm | - | - | - |
| 1777991313 | 16.11° C | 75% | 1010.2 hPa | 0 mm | - | - | - |
| 1777990995 | 16.11° C | 78% | 1010.2 hPa | 0 mm | - | - | - |
| 1777990700 | 15.56° C | 77% | 1010.3 hPa | 0 mm | - | - | - |
| 1777990401 | 16.11° C | 77% | 1010.4 hPa | 0 mm | - | - | - |
| 1777989810 | 16.67° C | 75% | 1010.2 hPa | 0 mm | - | - | - |
| 1777989511 | 16.67° C | 73% | 1010.5 hPa | 0 mm | - | - | - |
| 1777989199 | 16.67° C | 74% | 1010.6 hPa | 0 mm | - | - | - |
| 1777988900 | 16.67° C | 74% | 1010.5 hPa | 0 mm | - | - | - |
| 1777988609 | 16.67° C | 73% | 1010.7 hPa | 0 mm | - | - | - |
| 1777988309 | 16.67° C | 73% | 1010.7 hPa | 0 mm | - | - | - |
| 1777988010 | 16.67° C | 73% | 1010.7 hPa | 0 mm | - | - | - |
* Rain latest hour (hover to see other rain measurements)
** Current wind speed in m/s (hover to see current wind gust speed)